Regional Weather Roundup
Issued by NWS

Home | Current Version | Previous Version | Graphics & Text | Print | Product List | Glossary Off
Versions: 1 2 3 4 5 6 7 8 9 10 11 12 13 14 15 16 17 18 19 20 21 22 23 24 25 26 27 28 29 30 31 32 33 34 35 36 37 38 39 40 41 42 43 44 45 46 47 48 49 50

000
ASUS43 KMKX 271121
RWRWI

WISCONSIN REGIONAL WEATHER ROUNDUP
NATIONAL WEATHER SERVICE MILWAUKEE/SULLIVAN WI
600 AM CDT WED AUG 27 2014

NOTE: "FAIR" INDICATES FEW OR NO CLOUDS BELOW 12,000 FEET WITH NO
SIGNIFICANT WEATHER AND/OR OBSTRUCTIONS TO VISIBILITY.

WIZ001-002-006>008-014>016-023>028-271200-
NORTHWEST WISCONSIN

CITY           SKY/WX    TMP DP  RH WIND       PRES   REMARKS
SUPERIOR ARPT  FOG       49  48  99 CALM      30.20S VSB 3/4
ASHLAND        PTCLDY    51  49  92 SW5       30.21R
HAYWARD        PTCLDY    55  53  93 CALM      30.21R
SIREN          PTCLDY    53  52  97 CALM      30.20S FOG
RICE LAKE      PTCLDY    55  53  92 CALM      30.22R
LADYSMITH      MOCLDY    57  55  91 NW3       30.21R
EAU CLAIRE     MOCLDY    58  57  97 N3        30.18R
MENOMONIE      PTSUNNY   59  57  94 N5        30.20R
NEW RICHMOND   PTCLDY    57  56  94 CALM      30.20S
OSCEOLA        MOCLDY    56  56 100 CALM      30.23R
$$

WIZ003>005-009-010-017-018-271200-
NORTH CENTRAL WISCONSIN

CITY           SKY/WX    TMP DP  RH WIND       PRES   REMARKS
WOODRUFF       CLOUDY    57  55  95 CALM      30.19R
RHINELANDER    MOCLDY    54  53  97 CALM      30.19R
EAGLE RIVER    MOCLDY    52  52 100 CALM      30.18R FOG
LAND O LAKES   CLOUDY    51  51 100 CALM      30.20R
PHILLIPS       MOCLDY    53  52  96 NW3       30.19R
TOMAHAWK       MOCLDY    52  51  97 CALM      30.19R
MEDFORD        FOG       52  52  99 NW5       30.19R VSB 1/4
MERRILL        FOG       55  55 100 CALM      30.19R VSB 1/2
$$

WIZ029-030-035-036-043>047-271200-
CENTRAL WISCONSIN

CITY           SKY/WX    TMP DP  RH WIND       PRES   REMARKS
WAUSAU         MOCLDY    57  55  93 CALM      30.16R
MOSINEE        MOCLDY    55  55 100 CALM      30.13F
MARSHFIELD     MOCLDY    57  55  93 CALM      30.18R
STEVENS POINT  MOCLDY    56  54  94 CALM      30.18S
WAUPACA        MOCLDY    59  57  93 CALM      30.17R
WAUTOMA        HVY RAIN  58  56  93 CALM      30.18R
WISC RAPIDS    MOCLDY    60  54  80 CALM      30.19R
CAMP DOUGLAS   MOCLDY    56  56 100 CALM      30.17S
$$

WIZ011>013-019>022-031-037>040-048>050-271200-
NORTHEAST WISCONSIN

CITY           SKY/WX    TMP DP  RH WIND       PRES   REMARKS
ANTIGO         CLOUDY    54  54 100 CALM      30.18R FOG
STURGEON BAY   CLOUDY    59  50  72 E5        30.16S
GREEN BAY      PTCLDY    58  55  90 CALM      30.15F
MANITOWOC      MOCLDY    60  58  92 N3        30.16S
APPLETON       MOCLDY    59  52  77 N6        30.16S
CLINTONVILLE   MOCLDY    57  54  88 CALM      30.16F
OSHKOSH        MOCLDY    63  55  75 E8        30.15S
$$

WIZ032>034-041-042-053>061-271200-
SOUTHWEST WISCONSIN

CITY           SKY/WX    TMP DP  RH WIND       PRES   REMARKS
LA CROSSE      MOCLDY    63  58  83 NW3       30.17R
SPARTA         CLOUDY    57  56  97 CALM      30.18S
VIROQUA        CLOUDY    59  59 100 CALM      30.18S
BOSCOBEL       CLOUDY    62  59  90 CALM      30.17S
PRAIRIE DU CHI CLEAR     59  56  89 CALM      30.16F
PLATTEVILLE    FAIR      60  58  92 CALM      30.19R
$$

WIZ056-057-062-063-064-067-068-271200-
SOUTH CENTRAL WISCONSIN

CITY           SKY/WX    TMP DP  RH WIND       PRES   REMARKS
BARABOO/DELLS  CLOUDY    61  55  81 CALM      30.17S
LONE ROCK      CLOUDY    66  60  81 CALM      30.17S
WATERTOWN      MOCLDY    60  59  96 CALM      30.16R
MADISON        PTCLDY    60  57  89 CALM      30.17R
MIDDLETON      FAIR      58  58  99 CALM      30.18R
MONROE         PTCLDY    61  59  94 N5        30.17R
JANESVILLE     MOCLDY    63  61  94 CALM      30.16R
$$

WIZ051-052-058>065-066-070>072-271200-
SOUTHEAST WISCONSIN

CITY           SKY/WX    TMP DP  RH WIND       PRES   REMARKS
MILWAUKEE      MOCLDY    64  56  75 N3        30.14S
WAUKESHA       PTCLDY    61  55  82 NW3       30.16S
MILWAUKEE/TIMM MOCLDY    61  54  77 CALM      30.16R
RACINE         MOCLDY    63  59  87 N5        30.15S
BURLINGTON     MOCLDY    57  56  97 CALM      30.15S
KENOSHA        MOCLDY    63  59  87 N6        30.15R
FOND DU LAC    MOCLDY    62  57  83 NE7       30.16S
SHEBOYGAN      CLOUDY    62  59  90 N9        30.16R
WEST BEND      CLOUDY    61  55  82 N3        30.16R
JUNEAU         MOCLDY    60  57  91 CALM      30.17R
$$

LSZ147-162-271200-
LAKE SUPERIOR

STATION/POSITION TIME  TEMP    WIND        PRES    WAVE
                       AIR SEA DIR/SP/G            HT/PER
                 (UTC) (F)     (DEG/KT/KT) (MB)    (FT/S)
W MID LAKE BUOY  1050   56 54  290/  6/  6 1021.8R   0
DEVILS ISLAND    1100   58     300/  7/  8 1022.5R
PORT WING        1000   55     220/  3/  4 1022.4S
SAXON HARBOR     1000   56     190/  3/  6 1022.0R
$$

LMZ867-665-643>646-271200-
LAKE MICHIGAN

STATION/POSITION TIME  TEMP    WIND        PRES    WAVE
                       AIR SEA DIR/SP/G            HT/PER
                 (UTC) (F)     (DEG/KT/KT) (MB)    (FT/S)
N MID LAKE BUOY  1050   62 65  350/  8/ 10 1020.8S   1/ 4
NORTHPORT PIER   1000   63     350/  5/  6 1021.0S
SISTER BAY       1011   60        CALM       N/A
ALGOMA LAKESHORE 0953           40/  5/  7   N/A
KEWAUNEE LAKESHO 1000   61     360/  3/  5 1020.1S
SHEBOYGAN LAKESH 1100   64 66   30/ 20/ 21 1021.0R
ATWATER BUOY     1100   67     350/  8/ 12 1021.8R
MILWAUKEE LAKESH 1100   65     340/  5/  6   N/A
S MID LAKE BUOY  1050   68 69   60/  4/  4 1020.1R   0
KENOSHA   LAKESH 1100   67     330/  5/  8 1020.3R
$$

TC  - TEMPERATURE IN CELSIUS
VSB - VISIBILITY IN STATUTE MILES
WCI - WIND CHILL INDEX
HX  - HEAT INDEX




USA.gov is the U.S. government's official web portal to all federal, state and local government web resources and services.